When you browse on this site, cookies collect data to enhance your experience and personalize the content and advertising you see.
Visit our Privacy Policy to learn more. By continuing to use the site, you agree to this use of cookies and data.
  • In Romania
  • List of Countries
  • For 7 days
  • Water Temperature
  • Satellite Maps
  • Weather Map
  • Weather Widgets
  • user-avatar
    Login

    Hourly Weather Lahaur

    Today, 21 July, Sunday

    Time Temperature Precipitation Wind Pressure Humidity
    00:00 +34°C° 0 mm 1 mps 732 mmHg 50%
    01:00 +34°C° 0 mm 1 mps 732 mmHg 51%
    02:00 +34°C° 0 mm 1 mps 732 mmHg 53%
    03:00 +34°C° 0 mm 2 mps 732 mmHg 55%
    04:00 +34°C° 0 mm 2 mps 732 mmHg 56%
    05:00 +32°C° 0 mm 2 mps 732 mmHg 58%
    06:00 +34°C° 0 mm 2 mps 733 mmHg 56%
    07:00 +35°C° 0 mm 3 mps 733 mmHg 54%
    08:00 +37°C° 0 mm 3 mps 734 mmHg 51%
    09:00 +38°C° 0 mm 3 mps 734 mmHg 47%
    10:00 +39°C° 0 mm 3 mps 733 mmHg 42%
    11:00 +42°C° 0 mm 3 mps 733 mmHg 38%
    12:00 +42°C° 0 mm 3 mps 733 mmHg 37%
    13:00 +41°C° 0 mm 2 mps 733 mmHg 37%
    14:00 +41°C° 0 mm 2 mps 732 mmHg 36%
    15:00 +41°C° 0 mm 2 mps 732 mmHg 35%
    16:00 +41°C° 0 mm 2 mps 731 mmHg 35%
    17:00 +41°C° 0 mm 1 mps 731 mmHg 34%
    18:00 +40°C° 0 mm 2 mps 731 mmHg 38%
    19:00 +39°C° 0 mm 2 mps 731 mmHg 42%
    20:00 +38°C° 0 mm 2 mps 731 mmHg 46%
    21:00 +37°C° 0 mm 2 mps 731 mmHg 47%
    22:00 +37°C° 0 mm 2 mps 731 mmHg 48%
    23:00 +37°C° 0 mm 2 mps 731 mmHg 50%

    Tomorrow, 22 July, Monday

    Time Temperature Precipitation Wind Pressure Humidity
    00:00 +35°C° 0 mm 1 mps 731 mmHg 51%
    01:00 +35°C° 0 mm 1 mps 731 mmHg 52%
    02:00 +33°C° 0 mm 0 mps 731 mmHg 53%
    03:00 +34°C° 0 mm 1 mps 731 mmHg 53%
    04:00 +34°C° 0 mm 1 mps 731 mmHg 54%
    05:00 +34°C° 0 mm 1 mps 731 mmHg 54%
    06:00 +35°C° 0 mm 1 mps 731 mmHg 52%
    07:00 +37°C° 0 mm 2 mps 731 mmHg 49%
    08:00 +38°C° 0 mm 2 mps 732 mmHg 46%
    09:00 +39°C° 0 mm 2 mps 732 mmHg 42%
    10:00 +41°C° 0 mm 2 mps 732 mmHg 38%
    11:00 +42°C° 0 mm 2 mps 732 mmHg 34%
    12:00 +43°C° 0 mm 2 mps 731 mmHg 32%
    13:00 +43°C° 0 mm 2 mps 731 mmHg 30%
    14:00 +44°C° 0 mm 1 mps 731 mmHg 28%
    15:00 +44°C° 0 mm 1 mps 730 mmHg 28%
    16:00 +43°C° 0 mm 2 mps 730 mmHg 29%
    17:00 +43°C° 0 mm 2 mps 729 mmHg 30%
    18:00 +42°C° 0 mm 2 mps 729 mmHg 32%
    19:00 +42°C° 0 mm 2 mps 730 mmHg 33%
    20:00 +41°C° 0 mm 2 mps 730 mmHg 35%
    21:00 +40°C° 0 mm 2 mps 730 mmHg 37%
    22:00 +39°C° 0 mm 2 mps 730 mmHg 39%
    23:00 +39°C° 0 mm 2 mps 730 mmHg 40%

    Day after tomorrow, 23 July, Tuesday

    Time Temperature Precipitation Wind Pressure Humidity
    00:00 +38°C° 0 mm 2 mps 730 mmHg 41%
    01:00 +38°C° 0 mm 2 mps 730 mmHg 43%
    02:00 +36°C° 0 mm 1 mps 730 mmHg 44%
    03:00 +37°C° 0.2 mm 2 mps 730 mmHg 45%
    04:00 +36°C° 0.2 mm 2 mps 730 mmHg 47%
    05:00 +36°C° 0.2 mm 2 mps 729 mmHg 49%
    06:00 +37°C° 0.1 mm 2 mps 730 mmHg 46%
    07:00 +38°C° 0.1 mm 2 mps 730 mmHg 43%
    08:00 +39°C° 0.1 mm 2 mps 731 mmHg 41%
    09:00 +41°C° 0 mm 2 mps 731 mmHg 37%
    10:00 +42°C° 0 mm 1 mps 731 mmHg 34%
    11:00 +44°C° 0 mm 1 mps 731 mmHg 31%
    12:00 +44°C° 0 mm 1 mps 730 mmHg 29%
    13:00 +45°C° 0 mm 1 mps 730 mmHg 28%
    14:00 +42°C° 0 mm 0 mps 729 mmHg 27%
    15:00 +45°C° 0 mm 1 mps 729 mmHg 27%
    16:00 +45°C° 0 mm 1 mps 729 mmHg 27%
    17:00 +45°C° 0 mm 1 mps 728 mmHg 27%
    18:00 +44°C° 0 mm 1 mps 728 mmHg 29%
    19:00 +42°C° 0 mm 1 mps 728 mmHg 32%
    20:00 +41°C° 0 mm 2 mps 728 mmHg 34%
    21:00 +41°C° 0 mm 2 mps 728 mmHg 36%
    22:00 +40°C° 0 mm 3 mps 728 mmHg 38%
    23:00 +39°C° 0 mm 3 mps 728 mmHg 40%

    24 July, Wednesday

    Time Temperature Precipitation Wind Pressure Humidity
    00:00 +39°C° 0 mm 3 mps 728 mmHg 41%
    01:00 +38°C° 0 mm 3 mps 728 mmHg 42%
    02:00 +38°C° 0 mm 2 mps 728 mmHg 44%
    03:00 +37°C° 0 mm 2 mps 728 mmHg 45%
    04:00 +37°C° 0 mm 2 mps 728 mmHg 45%
    05:00 +37°C° 0 mm 2 mps 728 mmHg 46%
    06:00 +37°C° 0 mm 3 mps 729 mmHg 45%
    07:00 +38°C° 0 mm 4 mps 729 mmHg 44%
    08:00 +40°C° 0 mm 4 mps 729 mmHg 43%
    09:00 +42°C° 0 mm 4 mps 729 mmHg 38%
    10:00 +44°C° 0 mm 3 mps 729 mmHg 33%
    11:00 +46°C° 0 mm 2 mps 729 mmHg 28%
    12:00 +47°C° 0 mm 2 mps 729 mmHg 26%
    13:00 +48°C° 0 mm 2 mps 728 mmHg 23%
    14:00 +49°C° 0 mm 2 mps 728 mmHg 21%
    15:00 +48°C° 0 mm 2 mps 727 mmHg 21%
    16:00 +48°C° 0 mm 2 mps 727 mmHg 22%
    17:00 +46°C° 0 mm 1 mps 726 mmHg 23%
    18:00 +45°C° 0.1 mm 3 mps 726 mmHg 29%
    19:00 +43°C° 0.1 mm 5 mps 726 mmHg 36%
    20:00 +41°C° 0.1 mm 6 mps 726 mmHg 42%
    21:00 +41°C° 0 mm 6 mps 726 mmHg 45%
    22:00 +40°C° 0 mm 6 mps 727 mmHg 47%
    23:00 +39°C° 0 mm 6 mps 727 mmHg 50%

    25 July, Thursday

    Time Temperature Precipitation Wind Pressure Humidity
    00:00 +38°C° 0 mm 6 mps 727 mmHg 54%
    01:00 +36°C° 0 mm 6 mps 727 mmHg 58%
    02:00 +35°C° 0 mm 6 mps 727 mmHg 62%
    03:00 +35°C° 0 mm 6 mps 727 mmHg 62%
    04:00 +35°C° 0 mm 6 mps 728 mmHg 62%
    05:00 +35°C° 0 mm 6 mps 728 mmHg 62%
    06:00 +34°C° 0 mm 7 mps 728 mmHg 64%
    07:00 +34°C° 0 mm 7 mps 729 mmHg 67%
    08:00 +33°C° 0 mm 8 mps 729 mmHg 69%
    09:00 +34°C° 0 mm 7 mps 729 mmHg 66%
    10:00 +35°C° 0 mm 7 mps 730 mmHg 62%
    11:00 +36°C° 0 mm 7 mps 730 mmHg 59%
    12:00 +39°C° 0 mm 7 mps 730 mmHg 54%
    13:00 +40°C° 0 mm 7 mps 729 mmHg 50%
    14:00 +42°C° 0 mm 6 mps 729 mmHg 46%
    15:00 +43°C° 0 mm 7 mps 728 mmHg 45%
    16:00 +43°C° 0 mm 7 mps 728 mmHg 44%
    17:00 +43°C° 0 mm 7 mps 728 mmHg 43%
    18:00 +40°C° 0.2 mm 7 mps 728 mmHg 52%
    19:00 +37°C° 0.2 mm 8 mps 728 mmHg 60%
    20:00 +34°C° 0.2 mm 9 mps 728 mmHg 68%
    21:00 +33°C° 1 mm 8 mps 729 mmHg 71%
    22:00 +32°C° 1 mm 8 mps 729 mmHg 74%
    23:00 +32°C° 1 mm 8 mps 730 mmHg 77%

    26 July, Friday

    Time Temperature Precipitation Wind Pressure Humidity
    00:00 +30°C° 3.4 mm 7 mps 730 mmHg 79%
    01:00 +30°C° 3.4 mm 7 mps 729 mmHg 80%
    02:00 +29°C° 3.4 mm 7 mps 729 mmHg 82%
    03:00 +29°C° 2.7 mm 7 mps 730 mmHg 83%
    04:00 +29°C° 2.7 mm 7 mps 730 mmHg 85%
    05:00 +28°C° 2.7 mm 7 mps 730 mmHg 86%
    06:00 +29°C° 2.1 mm 6 mps 730 mmHg 85%
    07:00 +29°C° 2.1 mm 5 mps 731 mmHg 84%
    08:00 +29°C° 2.1 mm 5 mps 732 mmHg 83%
    09:00 +30°C° 0.9 mm 5 mps 732 mmHg 82%
    10:00 +30°C° 0.9 mm 5 mps 732 mmHg 81%
    11:00 +30°C° 0.9 mm 5 mps 732 mmHg 81%
    12:00 +32°C° 0.1 mm 5 mps 732 mmHg 78%
    13:00 +32°C° 0.1 mm 5 mps 731 mmHg 76%
    14:00 +33°C° 0.1 mm 5 mps 731 mmHg 73%
    15:00 +33°C° 0 mm 5 mps 731 mmHg 71%
    16:00 +34°C° 0 mm 5 mps 730 mmHg 68%
    17:00 +34°C° 0 mm 5 mps 730 mmHg 66%
    18:00 +33°C° 0 mm 5 mps 730 mmHg 69%
    19:00 +32°C° 0 mm 5 mps 730 mmHg 71%
    20:00 +30°C° 0 mm 4 mps 730 mmHg 74%
    21:00 +30°C° 0 mm 4 mps 731 mmHg 75%
    22:00 +30°C° 0 mm 4 mps 731 mmHg 76%
    23:00 +30°C° 0 mm 3 mps 732 mmHg 78%
    Show more